Tracking 19149 objects as of 20-Apr-2018
HD Live streaming from Space Station
objects crossing your sky now

OPS 9312 (IDSCS 2)

Track OPS 9312 (IDSCS 2) now!
OPS 9312 (IDSCS 2) is classified as:


NORAD ID: 2216
Int'l Code: 1966-053C
Perigee: 33,679.7 km
Apogee: 33,909.4 km
Inclination: 3.3 °
Period: 1,335.2 minutes
Semi major axis: 40165 km
RCS: 0.3162 m2 (medium)
Launch date: June 16, 1966
Source: United States (US)
Launch site: AIR FORCE EASTERN TEST RANGE (AFETR)
aabbcc
Your satellite tracking list
Your tracking list is empty




NASA's NSSDC Master Catalog

Two Line Element Set (TLE):
1 02216U 66053C   18110.09123519 -.00000087  00000-0  00000+0 0  9997
2 02216   3.3487  59.2931 0028592 150.2023 346.6931  1.07850584203832
Source of the keplerian elements: AFSPC